Weather History for KLRD - March, 2013

Change the Weather History Date:

Sunday, March 24, 2013

  Actual Average Record
Temperature  
Mean Temperature 68 °F 70 °F  
Max Temperature 78 °F 82 °F 103 °F (1954)
Min Temperature 57 °F 59 °F 38 °F (1974)
Degree Days  
Heating Degree Days 0 1  
Month to date heating degree days 22 62  
Since 1 July heating degree days 498 906  
Cooling Degree Days 3 7  
Month to date cooling degree days 167 120  
Year to date cooling degree days 321 205  
Growing Degree Days 16 (Base 50)    
Moisture  
Dew Point 28 °F    
Average Humidity 27    
Maximum Humidity 68    
Minimum Humidity 13    
Precipitation  
Precipitation 0.00 in 0.04 in 1.42 in (1940)
Month to date precipitation T 0.91  
Year to date precipitation 0.75 2.75  
Sea Level Pressure  
Sea Level Pressure 29.97 in    
Wind  
Wind Speed 15 mph (North)    
Max Wind Speed 32 mph    
Max Gust Speed 41 mph    
Visibility 9 miles    
Events      
T = Trace of Precipitation, MM = Missing Value Source: NWS Daily Summary

Daily Weather History Graph

Daily Weather History Graph

Search for Another Location

Airport or City:

Trip Planner

Search our weather history database for the weather conditions in past years. The results will help you decide how hot, cold, wet, or windy it might be!

Date:

Astronomy

Mar. 24, 2013 Rise Set
Actual Time 7:36 AM CDT 7:51 PM CDT
Civil Twilight 7:13 AM CDT 8:14 PM CDT
Nautical Twilight 6:46 AM CDT 8:42 PM CDT
Astronomical Twilight 6:18 AM CDT 9:09 PM CDT
Moon 5:31 PM CDT (3/24) 5:35 AM CDT (3/24)
Length of Visible Light 13h 01m
Length of Day
12h 14m
Waxing Gibbous, 92% of the Moon is Illuminated
Mar 24
Waxing Gibbous
Mar 27
Full
Apr 2
Last Quarter
Apr 10
New
Apr 18
First Quarter

Hourly Weather History & Observations

Time (CDT) Temp. Dew Point Humidity Pressure Visibility Wind Dir Wind Speed Gust Speed Precip Events Conditions
12:56 AM 75.9 °F 59.9 °F 57% 29.69 in 10.0 mi South 8.1 mph - N/A   Clear
1:56 AM 73.9 °F 61.0 °F 64% 29.71 in 9.0 mi SSW 6.9 mph - N/A   Clear
2:56 AM 73.9 °F 63.0 °F 68% 29.73 in 9.0 mi SSW 9.2 mph - N/A   Clear
3:56 AM 72.9 °F 61.9 °F 68% 29.74 in 8.0 mi SW 5.8 mph - N/A   Clear
4:56 AM 73.9 °F 32.9 °F 22% 29.81 in 7.0 mi NNW 24.2 mph 34.5 mph N/A   Clear
5:14 AM 73.4 °F 23.0 °F 15% 29.86 in 4.0 mi NNW 26.5 mph 33.4 mph N/A   Haze
5:26 AM 71.6 °F 21.2 °F 15% 29.88 in 3.0 mi NNW 25.3 mph - N/A   Haze
5:56 AM 70.0 °F 24.1 °F 18% 29.88 in 3.0 mi NNW 23.0 mph 33.4 mph N/A   Haze
6:56 AM 66.9 °F 37.9 °F 34% 29.95 in 7.0 mi North 26.5 mph 40.3 mph N/A   Clear
7:56 AM 63.9 °F 39.9 °F 41% 29.99 in 9.0 mi North 23.0 mph 32.2 mph N/A   Clear
8:56 AM 63.0 °F 36.0 °F 37% 30.06 in 9.0 mi North 21.9 mph 29.9 mph N/A   Clear
9:56 AM 63.9 °F 24.1 °F 22% 30.11 in 10.0 mi North 28.8 mph 36.8 mph N/A   Clear
10:56 AM 64.9 °F 30.0 °F 27% 30.13 in 10.0 mi North 21.9 mph 27.6 mph N/A   Clear
11:56 AM 64.9 °F 25.2 °F 22% 30.15 in 10.0 mi North 18.4 mph 29.9 mph N/A   Clear
12:56 PM 65.8 °F 21.0 °F 18% 30.13 in 10.0 mi NNW 17.3 mph 28.8 mph N/A   Clear
1:56 PM 65.8 °F 16.2 °F 15% 30.10 in 10.0 mi North 18.4 mph 24.2 mph N/A   Clear
2:56 PM 66.9 °F 16.2 °F 14% 30.06 in 10.0 mi NNE 18.4 mph 21.9 mph N/A   Clear
3:56 PM 68.9 °F 16.2 °F 13% 30.03 in 10.0 mi NNW 18.4 mph 21.9 mph N/A   Clear
4:56 PM 68.9 °F 15.1 °F 13% 30.00 in 10.0 mi North 12.7 mph 24.2 mph N/A   Clear
5:56 PM 68.9 °F 15.1 °F 13% 29.99 in 10.0 mi North 5.8 mph - N/A   Clear
6:56 PM 68.0 °F 15.1 °F 13% 30.00 in 10.0 mi NNE 9.2 mph - N/A   Clear
7:56 PM 64.9 °F 15.1 °F 15% 30.02 in 10.0 mi NE 8.1 mph - N/A   Clear
8:56 PM 63.0 °F 15.1 °F 16% 30.04 in 10.0 mi NE 5.8 mph - N/A   Clear
9:56 PM 59.9 °F 16.2 °F 18% 30.07 in 10.0 mi East 6.9 mph - N/A   Clear
10:56 PM 57.9 °F 16.2 °F 20% 30.07 in 10.0 mi ENE 11.5 mph - N/A   Clear
11:56 PM 57.9 °F 17.1 °F 20% 30.09 in 10.0 mi ENE 11.5 mph - N/A   Clear